International Skating Union - Official Site

ISU World Cup Heerenveen
December 12-14, 2014

Draw | Lap Times | Index | World Cup

Referee: Dan  IMMERFALL  (USA)
Starter: Stefan  KAMML  (GER)
StartTime: EndTime: Air Temp: Ice Temp: Humidity:
18:11 18:43 12 ℃ -7.4 ℃ 38%
Result Team Pursuit Men
Rankings as of Dec 13 2014 5:05PM
Rank: No.: Team: Nation: Time: Behind: Points:
Total 10
1 3 Korea (71) Cheol-Min Kim (75) Byung-Wook Ko (77) Seung-Hoon Lee (74) Min Seok Kim KOR KOR 3:44.570.5 - 17.88 - (17.8)
1.0 - 31.45 - (13.5)
1.5 - 44.97 - (13.5)
2.0 - 58.60 - (13.6)
2.5 - 1:12.39 - (13.7)
3.0 - 1:25.84 - (13.4)
3.5 - 1:39.31 - (13.4)
4.0 - 1:52.70 - (13.3)
4.5 - 2:06.45 - (13.7)
5.0 - 2:20.34 - (13.8)
5.5 - 2:34.49 - (14.1)
6.0 - 2:48.71 - (14.2)
6.5 - 3:03.07 - (14.3)
7.0 - 3:16.88 - (13.8)
7.5 - 3:30.74 - (13.8)
8.0 - 3:44.57 - (13.8)
150
2 1 Netherlands (92) Arjan Stroetinga (94) Frank Vreugdenhil (95) Douwe de Vries (82) Bob de Jong NED NED 3:44.970.5 - 17.99 - (17.9)
1.0 - 31.38 - (13.3)
1.5 - 44.65 - (13.2)
2.0 - 58.04 - (13.3)
2.5 - 1:11.64 - (13.6)
3.0 - 1:25.35 - (13.7)
3.5 - 1:39.12 - (13.7)
4.0 - 1:52.68 - (13.5)
4.5 - 2:06.53 - (13.8)
5.0 - 2:20.42 - (13.8)
5.5 - 2:34.43 - (14.0)
6.0 - 2:48.23 - (13.7)
6.5 - 3:02.28 - (14.0)
7.0 - 3:16.47 - (14.1)
7.5 - 3:30.84 - (14.3)
8.0 - 3:44.97 - (14.1)
0.40 120
3 11 Norway (96) Håvard Bøkko (97) Fredrik van der Horst (101) Sverre Lunde Pedersen (99) Håvard Holmefjord Lorentzen NOR NOR 3:45.520.5 - 17.61 - (17.6)
1.0 - 30.95 - (13.3)
1.5 - 44.43 - (13.4)
2.0 - 58.13 - (13.7)
2.5 - 1:12.06 - (13.9)
3.0 - 1:26.03 - (13.9)
3.5 - 1:40.03 - (14.0)
4.0 - 1:54.15 - (14.1)
4.5 - 2:08.01 - (13.8)
5.0 - 2:21.92 - (13.9)
5.5 - 2:36.00 - (14.0)
6.0 - 2:49.67 - (13.6)
6.5 - 3:03.38 - (13.7)
7.0 - 3:17.10 - (13.7)
7.5 - 3:31.21 - (14.1)
8.0 - 3:45.52 - (14.2)
0.95 106
4 8 Canada (8) Jordan Belchos (9) Ted-Jan Bloemen (17) Denny Morrison (11) Tyler Derraugh CAN CAN 3:45.570.5 - 17.74 - (17.7)
1.0 - 30.96 - (13.2)
1.5 - 44.29 - (13.3)
2.0 - 57.56 - (13.2)
2.5 - 1:10.87 - (13.3)
3.0 - 1:24.58 - (13.7)
3.5 - 1:38.37 - (13.7)
4.0 - 1:52.36 - (13.9)
4.5 - 2:06.50 - (14.1)
5.0 - 2:20.39 - (13.8)
5.5 - 2:34.48 - (14.0)
6.0 - 2:48.48 - (14.0)
6.5 - 3:02.35 - (13.8)
7.0 - 3:16.68 - (14.3)
7.5 - 3:31.10 - (14.4)
8.0 - 3:45.57 - (14.4)
1.00 90
5 5 Italy (46) Andrea Giovannini (48) Luca Stefani (49) Nicola Tumolero (47) Mirko Giacomo Nenzi ITA ITA 3:46.850.5 - 17.75 - (17.7)
1.0 - 31.67 - (13.9)
1.5 - 45.35 - (13.6)
2.0 - 59.17 - (13.8)
2.5 - 1:13.00 - (13.8)
3.0 - 1:26.64 - (13.6)
3.5 - 1:40.39 - (13.7)
4.0 - 1:54.43 - (14.0)
4.5 - 2:08.65 - (14.2)
5.0 - 2:22.58 - (13.9)
5.5 - 2:36.50 - (13.9)
6.0 - 2:50.65 - (14.1)
6.5 - 3:04.66 - (14.0)
7.0 - 3:18.92 - (14.2)
7.5 - 3:32.92 - (14.0)
8.0 - 3:46.85 - (13.9)
2.28 76
6 2 Poland (106) Zbigniew Brodka (110) Konrad Niedzwiedzki (113) Jan Szymanski (107) Roland Cieslak POL POL 3:47.900.5 - 17.84 - (17.8)
1.0 - 31.25 - (13.4)
1.5 - 44.76 - (13.5)
2.0 - 58.31 - (13.5)
2.5 - 1:12.08 - (13.7)
3.0 - 1:26.04 - (13.9)
3.5 - 1:39.78 - (13.7)
4.0 - 1:53.52 - (13.7)
4.5 - 2:07.43 - (13.9)
5.0 - 2:21.30 - (13.8)
5.5 - 2:35.23 - (13.9)
6.0 - 2:49.34 - (14.1)
6.5 - 3:03.65 - (14.3)
7.0 - 3:18.24 - (14.5)
7.5 - 3:32.79 - (14.5)
8.0 - 3:47.90 - (15.0)
3.33 45
7 9 Germany (35) Alexej Baumgärtner (36) Patrick Beckert (42) Marco Weber (40) Jonas Pflug GER GER 3:48.240.5 - 18.15 - (18.1)
1.0 - 31.94 - (13.7)
1.5 - 45.79 - (13.8)
2.0 - 59.26 - (13.4)
2.5 - 1:12.89 - (13.6)
3.0 - 1:26.73 - (13.8)
3.5 - 1:40.56 - (13.8)
4.0 - 1:54.45 - (13.8)
4.5 - 2:08.71 - (14.2)
5.0 - 2:23.16 - (14.4)
5.5 - 2:37.56 - (14.4)
6.0 - 2:51.55 - (13.9)
6.5 - 3:05.59 - (14.0)
7.0 - 3:19.79 - (14.1)
7.5 - 3:33.90 - (14.1)
8.0 - 3:48.24 - (14.3)
3.67 40
8 4 Russia (122) Aleksandr Rumyantsev (125) Danil Sinitsyn (128) Denis Yuskov (117) Sergey Gryaztsov RUS RUS 3:49.150.5 - 18.27 - (18.2)
1.0 - 31.85 - (13.5)
1.5 - 45.40 - (13.5)
2.0 - 58.85 - (13.4)
2.5 - 1:12.57 - (13.7)
3.0 - 1:26.19 - (13.6)
3.5 - 1:40.09 - (13.9)
4.0 - 1:53.81 - (13.7)
4.5 - 2:07.77 - (13.9)
5.0 - 2:21.74 - (13.9)
5.5 - 2:35.91 - (14.1)
6.0 - 2:49.87 - (13.9)
6.5 - 3:04.19 - (14.3)
7.0 - 3:18.75 - (14.5)
7.5 - 3:33.74 - (14.9)
8.0 - 3:49.15 - (15.4)
4.58 36
9 7 Japan (55) Shota Nakamura (59) Takuro Ogawa (62) Shane Williamson (58) Takuro Oda JPN JPN 3:50.980.5 - 17.85 - (17.8)
1.0 - 31.58 - (13.7)
1.5 - 45.34 - (13.7)
2.0 - 59.13 - (13.7)
2.5 - 1:12.82 - (13.6)
3.0 - 1:26.56 - (13.7)
3.5 - 1:40.83 - (14.2)
4.0 - 1:55.27 - (14.4)
4.5 - 2:09.84 - (14.5)
5.0 - 2:24.42 - (14.5)
5.5 - 2:38.84 - (14.4)
6.0 - 2:53.21 - (14.3)
6.5 - 3:07.81 - (14.5)
7.0 - 3:22.01 - (14.1)
7.5 - 3:36.34 - (14.3)
8.0 - 3:50.98 - (14.6)
6.41 32
10 10 China (20) Yiming Liu (22) Longjiang Sun (23) Rehanbai Talabuhan (19) Bailin Li CHN CHN 3:54.840.5 - 18.06 - (18.0)
1.0 - 32.08 - (14.0)
1.5 - 46.28 - (14.2)
2.0 - 1:00.66 - (14.3)
2.5 - 1:14.64 - (13.9)
3.0 - 1:28.81 - (14.1)
3.5 - 1:43.06 - (14.2)
4.0 - 1:57.64 - (14.5)
4.5 - 2:12.28 - (14.6)
5.0 - 2:27.18 - (14.9)
5.5 - 2:41.61 - (14.4)
6.0 - 2:56.09 - (14.4)
6.5 - 3:10.56 - (14.4)
7.0 - 3:25.53 - (14.9)
7.5 - 3:40.13 - (14.5)
8.0 - 3:54.84 - (14.7)
10.27 28